• In Lithuania
  • List of Countries
  • For 7 days
  • Water Temperature
  • Satellite Maps
  • Weather Map
  • Weather Widgets
  • user-avatar
    Login

    Hourly Weather Minsk

    Today, 18 June, Monday

    Time Temperature Precipitation Wind Pressure Humidity
    00:00 +15°C° 0 mm 1 mps 743 mmHg 88%
    01:00 +15°C° 0 mm 1 mps 743 mmHg 88%
    02:00 +16°C° 0 mm 1 mps 743 mmHg 87%
    03:00 +16°C° 0 mm 1 mps 743 mmHg 86%
    04:00 +16°C° 0 mm 1 mps 743 mmHg 86%
    05:00 +16°C° 0 mm 1 mps 743 mmHg 86%
    06:00 +19°C° 0 mm 1 mps 743 mmHg 83%
    07:00 +20°C° 0 mm 1 mps 743 mmHg 80%
    08:00 +21°C° 0 mm 1 mps 743 mmHg 78%
    09:00 +21°C° 0.4 mm 2 mps 743 mmHg 77%
    10:00 +21°C° 0.4 mm 2 mps 743 mmHg 77%
    11:00 +23°C° 0.4 mm 2 mps 743 mmHg 76%
    12:00 +24°C° 0.2 mm 2 mps 743 mmHg 72%
    13:00 +25°C° 0.2 mm 2 mps 743 mmHg 68%
    14:00 +26°C° 0.2 mm 2 mps 743 mmHg 64%
    15:00 +26°C° 0.4 mm 2 mps 743 mmHg 65%
    16:00 +25°C° 0.4 mm 2 mps 743 mmHg 66%
    17:00 +25°C° 0.4 mm 1 mps 743 mmHg 67%
    18:00 +24°C° 0.2 mm 1 mps 743 mmHg 72%
    19:00 +23°C° 0.2 mm 1 mps 743 mmHg 77%
    20:00 +22°C° 0.2 mm 1 mps 743 mmHg 82%
    21:00 +21°C° 0 mm 1 mps 743 mmHg 84%
    22:00 +20°C° 0 mm 1 mps 743 mmHg 87%
    23:00 +19°C° 0 mm 1 mps 743 mmHg 89%

    Tomorrow, 19 June, Tuesday

    Time Temperature Precipitation Wind Pressure Humidity
    00:00 +18°C° 0 mm 1 mps 743 mmHg 90%
    01:00 +18°C° 0 mm 1 mps 743 mmHg 91%
    02:00 +16°C° 0 mm 1 mps 743 mmHg 92%
    03:00 +16°C° 0 mm 2 mps 743 mmHg 92%
    04:00 +16°C° 0 mm 2 mps 744 mmHg 93%
    05:00 +16°C° 0 mm 2 mps 744 mmHg 93%
    06:00 +18°C° 0 mm 2 mps 744 mmHg 87%
    07:00 +19°C° 0 mm 2 mps 744 mmHg 81%
    08:00 +20°C° 0 mm 2 mps 744 mmHg 75%
    09:00 +23°C° 0 mm 2 mps 744 mmHg 69%
    10:00 +24°C° 0 mm 2 mps 744 mmHg 63%
    11:00 +25°C° 0 mm 2 mps 744 mmHg 56%
    12:00 +25°C° 0 mm 3 mps 744 mmHg 55%
    13:00 +26°C° 0 mm 3 mps 744 mmHg 53%
    14:00 +26°C° 0 mm 3 mps 744 mmHg 52%
    15:00 +26°C° 0 mm 3 mps 743 mmHg 54%
    16:00 +26°C° 0 mm 4 mps 743 mmHg 56%
    17:00 +26°C° 0 mm 4 mps 743 mmHg 58%
    18:00 +24°C° 0 mm 3 mps 743 mmHg 64%
    19:00 +22°C° 0 mm 3 mps 743 mmHg 71%
    20:00 +20°C° 0 mm 2 mps 743 mmHg 77%
    21:00 +19°C° 0 mm 2 mps 743 mmHg 81%
    22:00 +18°C° 0 mm 2 mps 744 mmHg 85%
    23:00 +17°C° 0 mm 2 mps 744 mmHg 88%

    Day after tomorrow, 20 June, Wednesday

    Time Temperature Precipitation Wind Pressure Humidity
    00:00 +16°C° 0 mm 3 mps 744 mmHg 90%
    01:00 +16°C° 0 mm 3 mps 744 mmHg 92%
    02:00 +14°C° 0 mm 3 mps 745 mmHg 94%
    03:00 +14°C° 0 mm 3 mps 745 mmHg 93%
    04:00 +14°C° 0 mm 3 mps 745 mmHg 92%
    05:00 +14°C° 0 mm 3 mps 745 mmHg 91%
    06:00 +16°C° 0 mm 3 mps 745 mmHg 87%
    07:00 +17°C° 0 mm 4 mps 745 mmHg 83%
    08:00 +18°C° 0 mm 4 mps 746 mmHg 78%
    09:00 +19°C° 0 mm 4 mps 746 mmHg 73%
    10:00 +20°C° 0 mm 5 mps 746 mmHg 68%
    11:00 +21°C° 0 mm 5 mps 746 mmHg 63%
    12:00 +22°C° 0 mm 5 mps 746 mmHg 60%
    13:00 +23°C° 0 mm 5 mps 745 mmHg 57%
    14:00 +23°C° 0 mm 5 mps 745 mmHg 54%
    15:00 +23°C° 0 mm 5 mps 745 mmHg 54%
    16:00 +23°C° 0 mm 4 mps 745 mmHg 55%
    17:00 +23°C° 0 mm 4 mps 745 mmHg 55%
    18:00 +21°C° 0 mm 4 mps 745 mmHg 61%
    19:00 +20°C° 0 mm 3 mps 745 mmHg 67%
    20:00 +18°C° 0 mm 2 mps 745 mmHg 73%
    21:00 +17°C° 0 mm 2 mps 745 mmHg 76%
    22:00 +16°C° 0 mm 2 mps 745 mmHg 79%
    23:00 +14°C° 0 mm 2 mps 745 mmHg 82%

    21 June, Thursday

    Time Temperature Precipitation Wind Pressure Humidity
    00:00 +14°C° 0 mm 2 mps 745 mmHg 84%
    01:00 +13°C° 0 mm 2 mps 745 mmHg 85%
    02:00 +12°C° 0 mm 2 mps 745 mmHg 86%
    03:00 +13°C° 0 mm 1 mps 745 mmHg 85%
    04:00 +13°C° 0 mm 1 mps 745 mmHg 84%
    05:00 +13°C° 0 mm 1 mps 745 mmHg 83%
    06:00 +15°C° 0 mm 2 mps 744 mmHg 77%
    07:00 +17°C° 0 mm 2 mps 744 mmHg 70%
    08:00 +19°C° 0 mm 2 mps 744 mmHg 64%
    09:00 +21°C° 0 mm 2 mps 744 mmHg 60%
    10:00 +22°C° 0 mm 3 mps 743 mmHg 57%
    11:00 +25°C° 0 mm 3 mps 743 mmHg 53%
    12:00 +25°C° 0 mm 3 mps 743 mmHg 52%
    13:00 +26°C° 0 mm 3 mps 742 mmHg 51%
    14:00 +27°C° 0 mm 4 mps 741 mmHg 51%
    15:00 +27°C° 0 mm 4 mps 741 mmHg 53%
    16:00 +27°C° 0 mm 4 mps 740 mmHg 55%
    17:00 +27°C° 0 mm 4 mps 739 mmHg 58%
    18:00 +26°C° 0.1 mm 3 mps 739 mmHg 64%
    19:00 +24°C° 0.1 mm 3 mps 738 mmHg 70%
    20:00 +22°C° 0.1 mm 3 mps 738 mmHg 76%
    21:00 +21°C° 0.1 mm 4 mps 737 mmHg 77%
    22:00 +21°C° 0.1 mm 4 mps 737 mmHg 78%
    23:00 +20°C° 0.1 mm 4 mps 736 mmHg 80%

    22 June, Friday

    Time Temperature Precipitation Wind Pressure Humidity
    00:00 +20°C° 0.6 mm 5 mps 735 mmHg 84%
    01:00 +20°C° 0.6 mm 5 mps 735 mmHg 88%
    02:00 +20°C° 0.6 mm 5 mps 734 mmHg 91%
    03:00 +20°C° 0.8 mm 5 mps 734 mmHg 93%
    04:00 +20°C° 0.8 mm 5 mps 734 mmHg 94%
    05:00 +20°C° 0.8 mm 5 mps 734 mmHg 95%
    06:00 +19°C° 1 mm 5 mps 734 mmHg 94%
    07:00 +17°C° 1 mm 5 mps 734 mmHg 93%
    08:00 +17°C° 1 mm 5 mps 735 mmHg 91%
    09:00 +17°C° 0 mm 5 mps 735 mmHg 83%
    10:00 +19°C° 0 mm 5 mps 736 mmHg 75%
    11:00 +19°C° 0 mm 5 mps 736 mmHg 66%
    12:00 +19°C° 0 mm 5 mps 736 mmHg 63%
    13:00 +20°C° 0 mm 5 mps 736 mmHg 61%
    14:00 +20°C° 0 mm 4 mps 736 mmHg 58%
    15:00 +20°C° 0 mm 4 mps 737 mmHg 58%
    16:00 +20°C° 0 mm 4 mps 737 mmHg 59%
    17:00 +19°C° 0 mm 4 mps 737 mmHg 60%
    18:00 +18°C° 0 mm 4 mps 737 mmHg 63%
    19:00 +17°C° 0 mm 3 mps 737 mmHg 67%
    20:00 +16°C° 0 mm 3 mps 738 mmHg 71%
    21:00 +14°C° 0 mm 3 mps 738 mmHg 69%
    22:00 +14°C° 0 mm 3 mps 738 mmHg 68%
    23:00 +13°C° 0 mm 3 mps 738 mmHg 66%

    23 June, Saturday

    Time Temperature Precipitation Wind Pressure Humidity
    00:00 +13°C° 0 mm 2 mps 738 mmHg 69%
    01:00 +12°C° 0 mm 2 mps 738 mmHg 73%
    02:00 +10°C° 0 mm 2 mps 738 mmHg 76%
    03:00 +10°C° 0 mm 2 mps 738 mmHg 77%
    04:00 +10°C° 0 mm 2 mps 739 mmHg 77%
    05:00 +10°C° 0 mm 2 mps 739 mmHg 78%
    06:00 +12°C° 0 mm 2 mps 739 mmHg 75%
    07:00 +13°C° 0 mm 2 mps 739 mmHg 72%
    08:00 +13°C° 0 mm 3 mps 739 mmHg 70%
    09:00 +14°C° 0 mm 3 mps 739 mmHg 67%
    10:00 +16°C° 0 mm 3 mps 739 mmHg 63%
    11:00 +17°C° 0 mm 3 mps 739 mmHg 60%
    12:00 +18°C° 0.1 mm 3 mps 739 mmHg 58%
    13:00 +18°C° 0.1 mm 3 mps 739 mmHg 56%
    14:00 +19°C° 0.1 mm 3 mps 739 mmHg 54%
    15:00 +19°C° 0.2 mm 3 mps 739 mmHg 56%
    16:00 +19°C° 0.2 mm 3 mps 739 mmHg 59%
    17:00 +18°C° 0.2 mm 3 mps 739 mmHg 62%
    18:00 +17°C° 0.1 mm 3 mps 739 mmHg 68%
    19:00 +16°C° 0.1 mm 2 mps 739 mmHg 74%
    20:00 +15°C° 0.1 mm 2 mps 739 mmHg 80%
    21:00 +14°C° 0.1 mm 2 mps 739 mmHg 83%
    22:00 +13°C° 0.1 mm 2 mps 739 mmHg 87%
    23:00 +10°C° 0.1 mm 2 mps 739 mmHg 90%
    Show more